Regional Weather Roundup
Issued by NWS Lake Charles, LA

Home | Current Version | Previous Version | Text Only | Print | Product List | Glossary On
Versions: 1 2 3 4 5 6 7 8 9 10 11 12 13 14 15 16 17 18 19 20 21 22 23 24 25 26 27
000
ASUS44 KLCH 190910
RWRLCH
REGIONAL WEATHER ROUNDUP
NATIONAL WEATHER SERVICE LAKE CHARLES LA
400 AM CDT SAT AUG 19 2017

Note: "fair" indicates few or no clouds below 12,000 feet with no
significant weather and/or obstructions to visibility.


ACROSS SOUTHEAST TEXAS

CITY           SKY/WX    TMP DP  RH WIND       PRES   REMARKS
BEAUMONT       CLEAR     77  76  96 CALM      29.99S
BEAUMONT CITY  FAIR      79  76  91 MISG      30.00S
ORANGE         SUNNY     77  76  99 CALM      30.01S FOG
JASPER           N/A     77  76  98 CALM      30.02F FOG
$$

ACROSS CENTRAL LOUISIANA

CITY           SKY/WX    TMP DP  RH WIND       PRES   REMARKS
LEESVILLE      CLEAR     79  77  92 CALM      30.00S
FULLERTON      FAIR      78  77  96 CALM      29.98S
ALEXANDRIA INT   N/A    N/A N/A N/A MISG      29.98S
ESLER FIELD    CLEAR     77  77 100 CALM      29.99S
DERIDDER       FAIR      78  77  96 CALM      30.02S
OAKDALE        SUNNY     74  73  96 CALM      30.00S FOG
OPELOUSAS      FAIR      77  76  98 CALM      29.99F
$$

ACROSS SOUTHWEST AND SOUTH CENTRAL LOUISIANA

CITY           SKY/WX    TMP DP  RH WIND       PRES   REMARKS
SULPHUR        SUNNY     80  78  94 CALM      30.00F
LAKE CHARLES   CLEAR     79  77  94 CALM      29.99S
CHENNAULT INT  CLEAR     82  77  87 W3        29.99F
CAMERON PHI    MOSUNNY   84  77  79 VRB6      29.98F
DEQUINCY       FAIR      76  75  96 CALM      30.00F
JENNINGS       FAIR      78  77  95 CALM      29.99F
LAFAYETTE      CLEAR     81  78  91 SW3       30.00S
NEW IBERIA     CLEAR     77  74  90 CALM      30.00F
ABBEVILLE      FAIR      75  75 100 CALM      30.00S
PATTERSON      CLEAR     78  77  96 CALM      30.01R
SALT POINT       N/A     85  77  77 W5        29.98S
$$

SELECTED SITES ACROSS THE REGION

CITY           SKY/WX    TMP DP  RH WIND       PRES   REMARKS
HOUSTON BUSH   PTCLDY    80  76  87 S5        29.99F
HOUSTON HOBBY  PTCLDY    82  76  81 CALM      29.99R
GALVESTON      CLEAR     84  79  85 S9        29.99F
COLLEGE STAT   CLEAR     79  75  87 CALM      30.00S
CONROE         CLEAR     75  73  93 CALM      30.00S
HUNTSVILLE     CLEAR     80  74  81 S6        30.00S
LUFKIN         CLEAR     77  74  90 CALM      30.00S
SHREVEPORT     CLEAR     80  76  87 SW6       29.98S
MONROE         CLEAR     78  76  93 CALM      29.99S
NATCHEZ MS     CLEAR     77  75  93 S3        30.00F
BATON ROUGE    CLEAR     79  76  90 W5        29.99S
N.O. INTL ARPT PTCLDY    81  78  91 W7        29.99R
SLIDELL        CLEAR     78  76  93 CALM      29.98S
$$

MARINE REPORTS

STATION/POSITION TIME  SKY/WX   TEMP    WIND        PRES    VSBY
                                AIR SEA DIR/SP/G
                 (UTC)          (F)     (DEG/KT/KT) (MB)    (MI)
BUOY 30 S HIGH I NOT AVBL
SEA RIM ST PARK  0800            84     230/  7/  9 1016.3F
PORT ARTHUR      0848            83 88  230/  5/  6 1015.8F
SABINE PASS N    0848            82 90  240/  2/  4 1017.0F
TEXAS POINT      NOT AVBL
CALCASIEU PASS   0842               87  260/  8/ 12 1014.8F
LK CHARLES BEACH 0848            83 87              1016.0F
MARSH ISLAND     0800            86                   N/A
FRESH WATER LOCK 0848            83 89  230/  4/  6 1015.6F
AMERADA PASS     0848            83 87   CALM  /  4 1015.8R
$$




USA.gov is the U.S. government's official web portal to all federal, state and local government web resources and services.